Home > Weather > Jena > Past weeks

Flag for Germany Past Weather in Jena, Thuringia, Germany — Yesterday and Last 2 Weeks

Now
77 °F

Passing clouds.


Feels Like: 79 °F
Forecast: 66 / 90 °F
Wind: 5 mph from East

Location: Erfurt-Bindersleben

Current Time: Aug 27, 2016 at 10:37:10 AM

Latest Report: Aug 27, 2016 at 10:20 AM


Visibility: N/A

Pressure: 30.15 "Hg

Humidity: 57%

Dew Point: 61 °F

Location of JenaLocation

Past Weather in Jena — Graph

°F

Jena Temperature Yesterday

Maximum temperature yesterday: 93 °F (at 4:20 PM)
Minimum temperature yesterday: 66 °F (at 6:20 AM)
Average temperature yesterday: 79 °F

High & Low Weather Summary for the Past Weeks

 TemperatureHumidityPressure
High93 °F (Aug 26, 4:20 PM)100% (Aug 14, 5:20 AM)30.36 "Hg (Aug 14, 5:20 AM)
Low43 °F (Aug 18, 6:20 AM)17% (Aug 25, 2:20 PM)29.80 "Hg (Aug 18, 4:50 PM)
Average67 °F64%30.11 "Hg
* Reported Aug 12 9:20 AM — Aug 27 9:20 AM, Jena, Weather by CustomWeather, © 2016

Note: Actual official high and low records may vary slightly from our data, if they occured in-between our weather recording intervals... More about our weather records

Advertising

Jena Weather History for the Previous 24 Hours

Scroll right to see more
 ConditionsComfort  
Time TempWeatherWind HumidityBarometerVisibility
9:20 AM
Sat, Aug 27
73 °FPassing clouds.5 mph65%30.15 "HgN/A
8:50 AM73 °FPassing clouds.5 mph65%30.12 "HgN/A
8:20 AM73 °FSunny.1 mph61%30.12 "Hg10 mi
7:50 AM68 °FSunny.3 mph73%30.12 "Hg10 mi
7:20 AM64 °FClear.6 mph78%30.12 "Hg10 mi
6:50 AM63 °FClear.8 mph83%30.12 "Hg10 mi
6:20 AM63 °FClear.6 mph77%30.12 "Hg10 mi
5:50 AM64 °FClear.6 mph78%30.12 "Hg10 mi
5:20 AM64 °FClear.5 mph78%30.12 "Hg10 mi
4:50 AM64 °FClear.5 mph78%30.12 "Hg10 mi
4:20 AM64 °FClear.7 mph73%30.12 "Hg10 mi
3:50 AM63 °FClear.8 mph77%30.12 "Hg10 mi
3:20 AM63 °FClear.9 mph77%30.09 "Hg10 mi
2:50 AM64 °FClear.9 mph73%30.09 "Hg10 mi
2:20 AM66 °FClear.10 mph68%30.09 "Hg10 mi
1:50 AM66 °FClear.9 mph68%30.09 "Hg10 mi
1:20 AM66 °FClear.9 mph68%30.09 "Hg10 mi
12:50 AM68 °FClear.8 mph64%30.09 "Hg10 mi
12:20 AM70 °FClear.9 mph60%30.09 "Hg10 mi
11:50 PM
Fri, Aug 26
70 °FClear.9 mph60%30.09 "Hg10 mi
11:20 PM72 °FClear.9 mph57%30.09 "Hg10 mi
10:50 PM75 °FClear.8 mph54%30.09 "Hg10 mi
10:20 PM77 °FClear.7 mph54%30.09 "Hg10 mi
9:50 PM77 °FClear.8 mph54%30.07 "Hg10 mi
9:20 PM81 °FClear.7 mph45%30.07 "Hg10 mi
8:50 PM81 °FSunny.6 mph42%30.07 "Hg10 mi
8:20 PM82 °FSunny.6 mph40%30.07 "Hg10 mi
7:50 PM84 °FSunny.7 mph37%30.07 "Hg10 mi
7:20 PM86 °FSunny.8 mph35%30.04 "Hg10 mi
6:50 PM90 °FSunny.7 mph27%30.04 "Hg10 mi
6:20 PM91 °FSunny.7 mph24%30.04 "Hg10 mi
5:50 PM91 °FPassing clouds.5 mph21%30.04 "HgN/A
5:20 PM91 °FPassing clouds.5 mph23%30.04 "HgN/A
4:50 PM93 °FPassing clouds.3 mph23%30.04 "HgN/A
4:20 PM93 °FPassing clouds.7 mph21%30.04 "HgN/A
3:50 PM91 °FSunny.6 mph23%30.04 "Hg10 mi
3:20 PM91 °FPassing clouds.6 mph23%30.04 "HgN/A
2:50 PM91 °FPassing clouds.6 mph23%30.07 "HgN/A
2:20 PM90 °FPassing clouds.6 mph24%30.07 "HgN/A
1:50 PM90 °FSunny.3 mph24%30.07 "Hg10 mi
1:20 PM90 °FSunny.3 mph26%30.07 "Hg10 mi
12:50 PM88 °FSunny.5 mph29%30.07 "Hg10 mi
12:20 PM86 °FSunny.3 mph31%30.07 "Hg10 mi
11:50 AM84 °FPassing clouds.5 mph33%30.07 "HgN/A
11:20 AM82 °FSunny.3 mph37%30.07 "Hg10 mi
10:50 AM81 °FSunny.3 mph42%30.07 "Hg10 mi
10:20 AM79 °FPassing clouds.3 mph45%30.07 "HgN/A
Weather by CustomWeather, © 2016

See weather overviewHow to use our weather pages